Location: Hermaringen
(48.5952°N, 10.2585°E)
Time: 02:50:00
(UTC+00:00)

Altair - Pass Details

Date: 22 February 2026
Orbit: 1502 x 1682 km, 47.2° (Epoch: 13 March)

Event Time Altitude Azimuth Distance (km) Brightness Sun altitude
Rises 03:20:37 0° 235° (SW) 4,627 - -29.2°
Reaches altitude 10° 03:23:39 10° 232° (SW) 3,649 - -28.7°
Exits shadow 03:29:25 42° 213° (SSW) 2,040 7.7 -27.8°
Maximum altitude 03:32:36 62° 155° (SSE) 1,685 7.6 -27.3°
Drops below altitude 10° 03:41:48 10° 78° (ENE) 3,740 10.6 -25.8°
Sets 03:44:57 0° 75° (ENE) 4,749 11.5 -25.3°
